Date String (YYYY-MM-DD hh:mm:ss) UTC,Instrument flags,Ambient pressure (hPa),Sample flow (lpm),Bypass flow (lpm),Sample temperature (°C),Ambient temperature (°C),ASC tube jacket temperature (°C),LED temperature (°C),Box temperature (°C),Sample RH (%),Span deviation,Mass concentration (μg/m³),Mass concentration (μg/m³),Mass concentration (μg/m³)
DateTimeUTC,F1_M11,P_M11,Q1_M11,Q2_M11,T1_M11,T2_M11,T3_M11,T4_M11,T5_M11,U1_M11,ZSPAN_M11,X2_M11,X0_M11,X1_M11
2023-02-17 14:00:00,,0827.2,5.02,0.00,22.7,21.1,00.0,31.5,24.3,06.1,0000.0,0001.68,0003.33,0001.28
2023-02-17 14:01:00,,0827.2,5.00,0.00,22.6,20.9,00.0,31.5,24.3,06.1,0000.0,0001.70,0003.91,0001.29
2023-02-17 14:02:00,,0827.3,5.02,0.00,22.6,20.8,00.0,31.5,24.2,06.1,0000.0,0001.72,0004.09,0001.30
2023-02-17 14:03:00,,0827.2,4.99,0.00,22.6,20.7,00.0,31.5,24.2,06.1,0000.0,0001.71,0004.20,0001.29
2023-02-17 14:04:00,,0827.2,5.03,0.00,22.5,20.7,00.0,31.5,24.1,06.1,0000.0,0001.74,0004.29,0001.31
2023-02-17 14:05:00,,0827.2,5.02,0.00,22.5,20.9,00.0,31.4,24.1,06.1,0000.0,0001.83,0004.89,0001.33
2023-02-17 14:06:00,,0827.3,5.00,0.00,22.6,22.1,00.0,31.4,24.4,05.9,0000.0,0001.85,0005.04,0001.34
2023-02-17 14:07:00,,0827.3,4.92,0.00,22.7,23.2,00.0,31.4,24.7,05.9,0000.0,0001.84,0005.02,0001.35
2023-02-17 14:08:00,,0827.4,4.95,0.00,22.8,23.3,00.0,31.4,24.8,05.8,0000.0,0001.91,0004.98,0001.38
2023-02-17 14:09:00,,0827.4,4.98,0.00,22.8,22.8,00.0,31.5,24.7,05.8,0000.0,0001.94,0004.84,0001.39
2023-02-17 14:10:00,,0827.4,5.03,0.00,22.8,22.3,00.0,31.5,24.6,05.9,0000.0,0001.95,0004.83,0001.41
2023-02-17 14:11:00,,0827.3,5.01,0.00,22.8,21.9,00.0,31.5,24.5,06.1,0000.0,0001.94,0004.79,0001.41
2023-02-17 14:12:00,,0827.3,5.01,0.00,22.8,21.6,00.0,31.5,24.4,06.4,0000.0,0001.93,0004.28,0001.41
2023-02-17 14:13:00,,0827.4,5.00,0.00,22.7,21.4,00.0,31.6,24.4,06.5,0000.0,0001.94,0004.04,0001.39
2023-02-17 14:14:00,,0827.4,5.01,0.00,22.7,21.3,00.0,31.5,24.4,06.5,0000.0,0001.95,0003.94,0001.39
2023-02-17 14:15:00,,0827.2,5.01,0.00,22.7,21.1,00.0,31.5,24.3,06.8,0000.0,0001.94,0003.95,0001.39
2023-02-17 14:16:00,,0827.2,5.01,0.00,22.6,21.0,00.0,31.5,24.3,07.0,0000.0,0001.85,0003.43,0001.37
2023-02-17 14:17:00,,0827.4,4.95,0.00,22.6,20.9,00.0,31.5,24.3,07.0,0000.0,0001.77,0003.06,0001.35
2023-02-17 14:18:00,,0827.4,5.04,0.00,22.6,20.8,00.0,31.5,24.2,07.3,0000.0,0001.77,0003.08,0001.33
2023-02-17 14:19:00,,0827.4,5.01,0.00,22.6,20.7,00.0,31.5,24.2,07.2,0000.0,0001.73,0002.68,0001.30
2023-02-17 14:20:00,,0827.4,5.02,0.00,22.6,21.6,00.0,31.4,24.4,07.2,0000.0,0001.66,0002.59,0001.29
2023-02-17 14:21:00,,0827.4,4.98,0.00,22.7,22.9,00.0,31.4,24.7,07.4,0000.0,0001.65,0002.57,0001.28
2023-02-17 14:22:00,,0827.4,4.94,0.00,22.8,23.0,00.0,31.5,24.7,07.3,0000.0,0001.65,0002.57,0001.26
2023-02-17 14:23:00,,0827.4,5.01,0.00,22.8,22.4,00.0,31.5,24.6,07.5,0000.0,0001.61,0002.46,0001.24
2023-02-17 14:24:00,,0827.4,4.98,0.00,22.8,22.1,00.0,31.5,24.6,07.6,0000.0,0001.56,0002.53,0001.22
2023-02-17 14:25:00,,0827.4,4.98,0.00,22.8,21.7,00.0,31.6,24.5,07.9,0000.0,0001.53,0002.57,0001.20
2023-02-17 14:26:00,,0827.4,5.00,0.00,22.7,21.5,00.0,31.6,24.4,08.0,0000.0,0001.54,0002.73,0001.18
2023-02-17 14:27:00,,0827.4,5.00,0.00,22.7,21.4,00.0,31.6,24.4,08.1,0000.0,0001.53,0002.67,0001.16
2023-02-17 14:28:00,,0827.4,4.99,0.00,22.7,21.2,00.0,31.6,24.4,08.3,0000.0,0001.53,0002.69,0001.13
2023-02-17 14:29:00,,0827.4,4.99,0.00,22.7,21.2,00.0,31.6,24.3,08.3,0000.0,0001.49,0002.62,0001.11
2023-02-17 14:30:00,,0827.4,5.00,0.00,22.7,21.1,00.0,31.5,24.3,08.3,0000.0,0001.50,0002.72,0001.09
2023-02-17 14:31:00,,0827.4,5.00,0.00,22.6,21.0,00.0,31.5,24.3,08.3,0000.0,0001.46,0002.66,0001.06
2023-02-17 14:32:00,,0827.4,4.98,0.00,22.6,20.9,00.0,31.5,24.3,08.3,0000.0,0001.44,0002.69,0001.03
2023-02-17 14:33:00,,0827.4,4.99,0.00,22.6,20.9,00.0,31.5,24.3,08.3,0000.0,0001.43,0002.72,0000.99
2023-02-17 14:34:00,,0827.4,5.02,0.00,22.6,20.9,00.0,31.5,24.3,08.3,0000.0,0001.48,0003.04,0000.98
2023-02-17 14:35:00,,0827.4,4.99,0.00,22.6,21.2,00.0,31.5,24.3,08.2,0000.0,0001.52,0003.08,0000.96
2023-02-17 14:36:00,,0827.4,4.91,0.00,22.7,22.6,00.0,31.4,24.6,08.2,0000.0,0001.51,0003.00,0000.94
2023-02-17 14:37:00,,0827.4,5.01,0.00,22.8,23.4,00.0,31.4,24.8,08.2,0000.0,0001.48,0002.90,0000.94
2023-02-17 14:38:00,,0827.4,4.96,0.00,22.8,23.0,00.0,31.5,24.8,08.1,0000.0,0001.51,0002.95,0000.95
2023-02-17 14:39:00,,0827.4,5.02,0.00,22.8,22.5,00.0,31.5,24.7,08.1,0000.0,0001.58,0003.12,0000.96
2023-02-17 14:40:00,,0827.5,4.99,0.00,22.8,22.1,00.0,31.5,24.6,08.0,0000.0,0001.66,0003.27,0000.99
2023-02-17 14:41:00,,0827.4,5.01,0.00,22.8,21.8,00.0,31.6,24.6,08.0,0000.0,0001.66,0003.17,0001.00
2023-02-17 14:42:00,,0827.4,4.98,0.00,22.8,21.6,00.0,31.6,24.5,08.0,0000.0,0001.71,0003.24,0001.00
2023-02-17 14:43:00,,0827.4,4.99,0.00,22.8,21.5,00.0,31.6,24.5,08.0,0000.0,0001.71,0003.23,0001.01
2023-02-17 14:44:00,,0827.4,5.00,0.00,22.8,21.3,00.0,31.6,24.5,08.0,0000.0,0001.70,0003.31,0001.01
2023-02-17 14:45:00,,0827.4,5.01,0.00,22.7,21.2,00.0,31.6,24.5,08.0,0000.0,0001.70,0003.21,0001.02
2023-02-17 14:46:00,,0827.4,5.01,0.00,22.7,21.2,00.0,31.6,24.4,08.1,0000.0,0001.70,0003.73,0001.04
2023-02-17 14:47:00,,0827.4,5.02,0.00,22.7,21.1,00.0,31.6,24.4,08.1,0000.0,0001.72,0004.29,0001.06
2023-02-17 14:48:00,,0827.5,5.01,0.00,22.7,21.1,00.0,31.6,24.4,08.1,0000.0,0001.74,0004.27,0001.06
2023-02-17 14:49:00,,0827.5,4.97,0.00,22.7,21.0,00.0,31.6,24.4,08.1,0000.0,0001.75,0004.24,0001.08
2023-02-17 14:50:00,,0827.5,5.01,0.00,22.6,20.9,00.0,31.6,24.3,08.1,0000.0,0001.74,0004.38,0001.08
2023-02-17 14:51:00,,0827.5,5.00,0.00,22.6,20.9,00.0,31.5,24.3,08.1,0000.0,0001.71,0004.32,0001.08
2023-02-17 14:52:00,,0827.5,4.99,0.00,22.6,20.9,00.0,31.5,24.3,07.9,0000.0,0001.68,0004.29,0001.07
2023-02-17 14:53:00,,0827.5,5.04,0.00,22.6,20.9,00.0,31.5,24.3,07.9,0000.0,0001.65,0004.26,0001.07
2023-02-17 14:54:00,,0827.5,5.01,0.00,22.6,21.7,00.0,31.5,24.4,08.0,0000.0,0001.68,0004.60,0001.07
2023-02-17 14:55:00,,0827.5,4.98,0.00,22.7,23.1,00.0,31.4,24.7,07.8,0000.0,0001.74,0004.94,0001.08
2023-02-17 14:56:00,,0827.5,4.98,0.00,22.9,23.5,00.0,31.5,24.9,07.7,0000.0,0001.73,0004.87,0001.08
2023-02-17 14:57:00,,0827.5,5.02,0.00,22.9,23.0,00.0,31.5,24.8,07.8,0000.0,0001.70,0004.45,0001.07
2023-02-17 14:58:00,,0827.5,5.00,0.00,22.9,22.5,00.0,31.6,24.8,07.7,0000.0,0001.73,0003.73,0001.07
2023-02-17 14:59:00,,0827.6,4.99,0.00,22.9,22.2,00.0,31.6,24.7,07.6,0000.0,0001.74,0003.77,0001.07
